User: anonymous   Login
Location: Bronschhofen
(47.4788°N, 9.0353°E)
Time: 04:39:00
(UTC+00:00)
Language:

COSMOS 2251 DEB - Orbit

View from above orbital plane
View from above orbital plane
View from above satellite
View from above satellite

Ground track
Ground track

The orbit data is extracted from the following two-line orbital elements,

1 34622U 93036WT  23027.42018625  .00002810  00000-0  13611-2 0  9995
2 34622  74.0441  20.7610 0119068 353.0536 157.7501 14.15238832715663
Epoch (UTC): 27 January 2023 10:05:04
Eccentricity: 0.0119068
inclination: 74.0441°
perigee height: 755 km
apogee height: 927 km
right ascension of ascending node: 20.7610°
argument of perigee: 353.0536°
revolutions per day: 14.15238832
mean anomaly at epoch: 157.7501°
orbit number at epoch: 71566

The dashed part of the orbit path shows where the satellite is in the earth's shadow,  

DLR